TimeCDT,TemperatureF,Dew PointF,Humidity,Sea Level PressureIn,VisibilityMPH,Wind Direction,Wind SpeedMPH,Gust SpeedMPH,PrecipitationIn,Events,Conditions,WindDirDegrees,DateUTC
12:53 AM,42.1,41.0,96,29.96,4.0,NNW,4.6,-,N/A,,Overcast,340,2013-05-11 05:53:00
1:36 AM,42.8,42.8,100,29.95,2.5,Calm,Calm,-,N/A,,Overcast,0,2013-05-11 06:36:00
1:53 AM,43.0,42.1,97,29.96,2.5,NW,5.8,-,N/A,,Overcast,320,2013-05-11 06:53:00
2:13 AM,42.8,42.8,100,29.96,3.0,NW,8.1,-,N/A,,Overcast,320,2013-05-11 07:13:00
2:53 AM,44.1,42.1,93,29.97,5.0,NW,4.6,-,N/A,,Overcast,320,2013-05-11 07:53:00
3:53 AM,43.0,42.1,97,29.98,4.0,West,5.8,-,N/A,,Overcast,260,2013-05-11 08:53:00
4:53 AM,43.0,42.1,97,29.96,3.0,WSW,5.8,-,N/A,,Overcast,250,2013-05-11 09:53:00
5:20 AM,42.8,42.8,100,29.95,7.0,WSW,5.8,-,N/A,,Overcast,250,2013-05-11 10:20:00
5:53 AM,44.1,42.1,93,29.96,10.0,West,4.6,-,N/A,,Overcast,270,2013-05-11 10:53:00
6:53 AM,45.0,43.0,93,29.94,6.0,WNW,3.5,-,N/A,,Overcast,290,2013-05-11 11:53:00
7:24 AM,46.4,44.6,93,29.92,5.0,WSW,3.5,-,N/A,,Overcast,240,2013-05-11 12:24:00
7:53 AM,46.9,44.1,90,29.93,6.0,SW,5.8,-,N/A,,Overcast,230,2013-05-11 12:53:00
8:53 AM,48.9,44.1,83,29.92,6.0,WSW,6.9,-,N/A,,Haze,250,2013-05-11 13:53:00
9:53 AM,51.1,46.0,83,29.92,9.0,WSW,12.7,-,N/A,,Overcast,240,2013-05-11 14:53:00
10:53 AM,53.1,46.9,80,29.88,10.0,SSW,13.8,18.4,N/A,,Overcast,210,2013-05-11 15:53:00
11:53 AM,55.0,46.9,74,29.87,10.0,SSW,12.7,20.7,N/A,,Overcast,210,2013-05-11 16:53:00
12:53 PM,55.0,48.0,77,29.86,10.0,SW,16.1,21.9,N/A,,Overcast,220,2013-05-11 17:53:00
1:37 PM,60.8,51.8,72,29.85,10.0,WSW,11.5,19.6,N/A,,Mostly Cloudy,250,2013-05-11 18:37:00
1:53 PM,60.1,48.9,67,29.85,10.0,West,11.5,-,N/A,,Partly Cloudy,280,2013-05-11 18:53:00
2:28 PM,53.6,42.8,67,29.88,10.0,NNW,21.9,35.7,N/A,,Mostly Cloudy,340,2013-05-11 19:28:00
2:53 PM,50.0,39.0,66,29.91,10.0,North,15.0,31.1,N/A,,Mostly Cloudy,350,2013-05-11 19:53:00
3:53 PM,52.0,39.9,63,29.91,10.0,North,12.7,20.7,N/A,,Clear,10,2013-05-11 20:53:00
4:53 PM,50.0,37.9,63,29.94,10.0,North,10.4,-,N/A,,Scattered Clouds,360,2013-05-11 21:53:00
5:53 PM,48.0,35.1,61,29.96,10.0,North,10.4,18.4,N/A,,Overcast,360,2013-05-11 22:53:00
6:53 PM,48.0,34.0,58,29.98,10.0,NNW,6.9,-,N/A,,Overcast,340,2013-05-11 23:53:00
7:53 PM,45.0,34.0,65,30.01,10.0,NNW,4.6,-,N/A,,Overcast,330,2013-05-12 00:53:00
8:53 PM,42.1,35.1,76,30.01,10.0,WNW,4.6,-,N/A,,Clear,290,2013-05-12 01:53:00
9:53 PM,39.0,35.1,86,30.03,10.0,West,3.5,-,N/A,,Clear,270,2013-05-12 02:53:00
10:53 PM,39.9,34.0,79,30.03,10.0,WNW,4.6,-,N/A,,Partly Cloudy,300,2013-05-12 03:53:00
11:53 PM,42.1,33.1,70,30.03,10.0,NW,5.8,-,N/A,,Clear,320,2013-05-12 04:53:00